Radiation Dose at Monitoring Post of Fukushima Daini Nuclear Power Station
Date,Time,MP-1(microSv/h),MP-2(microSv/h),MP-3(microSv/h),MP-4(microSv/h),MP-5(microSv/h),MP-6(microSv/h),MP-7(microSv/h),Wind Direction,Wind Velocity(m/s),Rain
2019/11/03,00:00,0.184,0.163,0.275,0.259,0.262,0.140,0.087,west-southwest,5.1,No
2019/11/03,00:10,0.186,0.163,0.277,0.259,0.261,0.141,0.087,southwest,6.0,No
2019/11/03,00:20,0.185,0.162,0.276,0.260,0.263,0.141,0.087,west-southwest,4.6,No
2019/11/03,00:30,0.184,0.163,0.275,0.259,0.261,0.140,0.087,west-southwest,3.8,No
2019/11/03,00:40,0.184,0.163,0.276,0.260,0.262,0.141,0.087,west-southwest,2.9,No
2019/11/03,00:50,0.185,0.163,0.276,0.260,0.262,0.141,0.087,west-southwest,4.0,No
2019/11/03,01:00,0.184,0.163,0.275,0.259,0.260,0.141,0.086,southwest,4.4,No
2019/11/03,01:10,0.185,0.163,0.277,0.259,0.263,0.140,0.086,west-southwest,5.7,No
2019/11/03,01:20,0.184,0.163,0.276,0.259,0.260,0.141,0.087,west-southwest,5.1,No
2019/11/03,01:30,0.185,0.163,0.276,0.259,0.261,0.142,0.087,west,3.4,No
2019/11/03,01:40,0.184,0.163,0.276,0.259,0.262,0.140,0.086,west,1.8,No
2019/11/03,01:50,0.185,0.164,0.276,0.260,0.261,0.141,0.087,west-northwest,3.8,No
2019/11/03,02:00,0.185,0.162,0.275,0.258,0.262,0.141,0.087,west-northwest,2.3,No
2019/11/03,02:10,0.185,0.164,0.276,0.259,0.261,0.140,0.086,northwest,1.4,No
2019/11/03,02:20,0.185,0.163,0.276,0.259,0.261,0.140,0.086,north,1.4,No
2019/11/03,02:30,0.184,0.163,0.276,0.259,0.263,0.142,0.088,north-northwest,1.8,No
2019/11/03,02:40,0.184,0.162,0.276,0.260,0.261,0.141,0.087,north-northwest,1.7,No
2019/11/03,02:50,0.185,0.163,0.275,0.260,0.261,0.141,0.087,north,1.3,No
2019/11/03,03:00,0.185,0.164,0.274,0.259,0.262,0.141,0.087,northeast,1.6,No
2019/11/03,03:10,0.185,0.163,0.275,0.259,0.261,0.141,0.087,northeast,1.6,No
2019/11/03,03:20,0.185,0.164,0.276,0.260,0.262,0.141,0.087,north-northeast,1.4,No
2019/11/03,03:30,0.184,0.163,0.276,0.259,0.262,0.140,0.087,north-northeast,1.2,No
2019/11/03,03:40,0.186,0.162,0.275,0.259,0.261,0.141,0.087,east-northeast,1.9,No
2019/11/03,03:50,0.185,0.164,0.275,0.259,0.262,0.142,0.087,northeast,2.4,No
2019/11/03,04:00,0.184,0.162,0.275,0.260,0.263,0.141,0.086,northeast,1.5,No
2019/11/03,04:10,0.186,0.162,0.275,0.260,0.262,0.141,0.087,northeast,1.2,No
2019/11/03,04:20,0.185,0.163,0.277,0.260,0.263,0.140,0.087,east-northeast,1.3,No
2019/11/03,04:30,0.185,0.162,0.274,0.258,0.261,0.140,0.086,east-northeast,1.1,No
2019/11/03,04:40,0.186,0.162,0.275,0.259,0.262,0.141,0.087,-,CALM,No
2019/11/03,04:50,0.184,0.162,0.276,0.259,0.263,0.140,0.087,north-northeast,0.9,No
2019/11/03,05:00,0.185,0.162,0.276,0.258,0.262,0.141,0.087,north-northeast,1.4,No
2019/11/03,05:10,0.186,0.162,0.275,0.257,0.262,0.140,0.087,north-northeast,1.8,No
2019/11/03,05:20,0.185,0.163,0.277,0.261,0.261,0.141,0.087,north,2.5,No
2019/11/03,05:30,0.184,0.162,0.276,0.258,0.261,0.141,0.087,north,2.2,No
2019/11/03,05:40,0.185,0.163,0.274,0.259,0.263,0.141,0.088,north-northeast,1.5,No
2019/11/03,05:50,0.185,0.164,0.276,0.259,0.262,0.141,0.087,north-northeast,2.0,No
2019/11/03,06:00,0.187,0.163,0.275,0.259,0.261,0.140,0.087,north-northeast,1.7,No
2019/11/03,06:10,0.184,0.163,0.275,0.259,0.262,0.141,0.086,north-northeast,2.5,No
2019/11/03,06:20,0.184,0.164,0.275,0.260,0.261,0.141,0.086,north-northeast,2.2,No
2019/11/03,06:30,0.186,0.163,0.276,0.259,0.262,0.141,0.087,north-northeast,1.6,No
2019/11/03,06:40,0.185,0.161,0.275,0.259,0.263,0.141,0.087,north-northeast,1.4,No
2019/11/03,06:50,0.183,0.163,0.277,0.259,0.261,0.141,0.087,north-northeast,1.1,No
2019/11/03,07:00,0.184,0.162,0.276,0.259,0.262,0.140,0.087,north-northeast,1.2,No
2019/11/03,07:10,0.185,0.162,0.276,0.259,0.261,0.140,0.086,northeast,1.3,No
2019/11/03,07:20,0.185,0.164,0.276,0.259,0.261,0.141,0.086,northeast,1.2,No
2019/11/03,07:30,0.184,0.163,0.276,0.258,0.263,0.141,0.087,north-northeast,0.8,No
2019/11/03,07:40,0.184,0.162,0.275,0.257,0.260,0.141,0.087,-,CALM,No
2019/11/03,07:50,0.184,0.163,0.276,0.259,0.262,0.140,0.086,north,0.9,No
2019/11/03,08:00,0.184,0.163,0.276,0.258,0.260,0.140,0.087,north-northeast,0.7,No
2019/11/03,08:10,0.185,0.163,0.276,0.259,0.262,0.140,0.087,north-northeast,1.1,No
2019/11/03,08:20,0.185,0.163,0.274,0.257,0.262,0.140,0.086,north-northwest,0.6,No
2019/11/03,08:30,0.184,0.161,0.276,0.259,0.261,0.140,0.087,east-northeast,1.4,No
2019/11/03,08:40,0.185,0.163,0.276,0.255,0.263,0.139,0.086,-,CALM,No
2019/11/03,08:50,0.184,0.163,0.274,0.259,0.260,0.140,0.086,northeast,1.4,No
2019/11/03,09:00,0.185,0.162,0.275,0.257,0.262,0.140,0.087,northeast,0.9,No
2019/11/03,09:10,0.185,0.162,0.276,0.257,0.261,0.141,0.087,east-northeast,1.7,No
2019/11/03,09:20,0.185,0.162,0.273,0.258,0.263,0.140,0.088,east-northeast,1.1,No
2019/11/03,09:30,0.183,0.162,0.275,0.258,0.261,0.140,0.086,northeast,1.1,No
2019/11/03,09:40,0.184,0.161,0.274,0.258,0.262,0.141,0.088,east,0.9,No
2019/11/03,09:50,0.184,0.162,0.275,0.257,0.261,0.141,0.087,northeast,1.0,No
2019/11/03,10:00,0.184,0.163,0.274,0.260,0.261,0.140,0.086,northeast,1.7,No
2019/11/03,10:10,0.186,0.163,0.277,0.257,0.262,0.141,0.087,northeast,1.1,No
2019/11/03,10:20,0.185,0.162,0.273,0.259,0.261,0.141,0.086,north,1.8,No
2019/11/03,10:30,0.184,0.163,0.275,0.257,0.262,0.142,0.087,north-northwest,2.1,No
2019/11/03,10:40,0.185,0.162,0.273,0.259,0.260,0.141,0.087,north-northeast,2.4,No
2019/11/03,10:50,0.184,0.164,0.276,0.259,0.263,0.140,0.087,north-northeast,3.0,No
2019/11/03,11:00,0.185,0.162,0.273,0.259,0.261,0.141,0.086,north,2.6,No
2019/11/03,11:10,0.184,0.164,0.277,0.258,0.263,0.141,0.088,north-northeast,2.7,No
2019/11/03,11:20,0.186,0.163,0.274,0.257,0.262,0.139,0.087,north,2.7,No
2019/11/03,11:30,0.184,0.163,0.276,0.260,0.260,0.141,0.087,north,2.6,No
2019/11/03,11:40,0.186,0.162,0.275,0.258,0.263,0.140,0.086,north,2.4,No
2019/11/03,11:50,0.183,0.163,0.277,0.257,0.261,0.141,0.086,north-northeast,2.8,No
2019/11/03,12:00,0.185,0.163,0.276,0.260,0.262,0.141,0.087,north-northeast,4.0,No
2019/11/03,12:10,0.184,0.162,0.276,0.256,0.261,0.140,0.086,northeast,3.4,No
2019/11/03,12:20,0.184,0.163,0.274,0.258,0.261,0.141,0.087,northeast,4.7,No
2019/11/03,12:30,0.185,0.162,0.277,0.257,0.262,0.140,0.086,northeast,4.6,No
2019/11/03,12:40,0.184,0.162,0.275,0.256,0.261,0.141,0.087,north-northeast,4.6,No
2019/11/03,12:50,0.186,0.161,0.276,0.260,0.263,0.141,0.087,north-northeast,4.1,No
2019/11/03,13:00,0.184,0.163,0.275,0.258,0.261,0.142,0.087,northeast,3.7,No
2019/11/03,13:10,0.184,0.163,0.276,0.257,0.260,0.140,0.087,north-northeast,3.4,No
2019/11/03,13:20,0.184,0.163,0.274,0.259,0.263,0.140,0.087,north-northeast,3.2,No
2019/11/03,13:30,0.185,0.162,0.275,0.257,0.260,0.141,0.087,northeast,2.8,No
2019/11/03,13:40,0.186,0.162,0.276,0.257,0.261,0.140,0.087,northeast,2.8,No
2019/11/03,13:50,0.184,0.163,0.274,0.259,0.263,0.141,0.086,northeast,2.3,No
2019/11/03,14:00,0.184,0.162,0.275,0.257,0.260,0.141,0.087,east-northeast,2.1,No
2019/11/03,14:10,0.184,0.164,0.274,0.259,0.263,0.140,0.086,east-northeast,1.2,No
2019/11/03,14:20,0.185,0.162,0.276,0.259,0.262,0.140,0.087,east,1.6,No
2019/11/03,14:30,0.185,0.163,0.275,0.259,0.263,0.141,0.086,east-northeast,1.6,No
2019/11/03,14:40,0.185,0.162,0.277,0.260,0.261,0.140,0.087,northeast,1.4,No
2019/11/03,14:50,0.184,0.163,0.273,0.257,0.261,0.140,0.086,north-northeast,0.8,No
2019/11/03,15:00,0.185,0.162,0.277,0.260,0.262,0.141,0.087,north-northeast,1.5,No
2019/11/03,15:10,0.186,0.163,0.274,0.258,0.260,0.139,0.087,northeast,1.5,No
2019/11/03,15:20,0.185,0.162,0.276,0.260,0.264,0.140,0.086,north-northeast,1.9,No
2019/11/03,15:30,0.185,0.163,0.274,0.258,0.261,0.140,0.087,north-northeast,2.6,No
2019/11/03,15:40,0.184,0.163,0.276,0.260,0.264,0.140,0.087,north-northeast,3.1,No
2019/11/03,15:50,0.186,0.163,0.276,0.258,0.261,0.140,0.086,north-northeast,3.4,No
2019/11/03,16:00,0.185,0.162,0.275,0.259,0.264,0.140,0.086,northeast,1.9,No
2019/11/03,16:10,0.185,0.163,0.276,0.259,0.261,0.141,0.086,-,CALM,No
2019/11/03,16:20,0.186,0.163,0.276,0.259,0.263,0.141,0.086,north,3.1,No
2019/11/03,16:30,0.184,0.164,0.275,0.260,0.263,0.139,0.087,-,CALM,No
2019/11/03,16:40,0.184,0.162,0.274,0.260,0.264,0.140,0.087,-,CALM,No
2019/11/03,16:50,0.185,0.163,0.276,0.260,0.262,0.140,0.086,-,CALM,No
2019/11/03,17:00,0.184,0.163,0.275,0.260,0.263,0.141,0.086,-,CALM,No
2019/11/03,17:10,0.185,0.162,0.275,0.259,0.262,0.140,0.087,northwest,0.9,No
2019/11/03,17:20,0.186,0.163,0.276,0.260,0.262,0.141,0.086,-,CALM,No
2019/11/03,17:30,0.185,0.163,0.276,0.260,0.263,0.140,0.087,-,CALM,No
2019/11/03,17:40,0.184,0.163,0.276,0.260,0.261,0.141,0.085,northwest,1.5,No
2019/11/03,17:50,0.185,0.163,0.275,0.259,0.264,0.141,0.086,northwest,1.0,No
2019/11/03,18:00,0.184,0.163,0.277,0.259,0.262,0.141,0.087,northwest,1.2,No
2019/11/03,18:10,0.184,0.163,0.275,0.258,0.264,0.140,0.086,north,1.5,No
2019/11/03,18:20,0.184,0.162,0.275,0.259,0.263,0.141,0.086,north,3.4,No
2019/11/03,18:30,0.186,0.162,0.277,0.258,0.262,0.141,0.087,northwest,2.3,No
2019/11/03,18:40,0.184,0.163,0.276,0.258,0.262,0.141,0.087,north-northwest,2.2,No
2019/11/03,18:50,0.186,0.163,0.276,0.260,0.262,0.140,0.087,north,2.4,No
2019/11/03,19:00,0.185,0.163,0.275,0.259,0.264,0.140,0.086,north-northwest,2.5,No
2019/11/03,19:10,0.185,0.164,0.275,0.262,0.261,0.141,0.086,north-northwest,2.6,No
2019/11/03,19:20,0.185,0.163,0.275,0.259,0.263,0.141,0.087,north-northwest,2.1,No
2019/11/03,19:30,0.185,0.164,0.275,0.259,0.262,0.141,0.087,north-northwest,0.8,No
2019/11/03,19:40,0.186,0.164,0.277,0.260,0.262,0.141,0.086,north,0.7,No
2019/11/03,19:50,0.184,0.164,0.276,0.258,0.260,0.140,0.087,-,CALM,No
2019/11/03,20:00,0.186,0.163,0.276,0.260,0.262,0.140,0.086,north,1.9,No
2019/11/03,20:10,0.185,0.163,0.275,0.259,0.263,0.140,0.087,north-northwest,1.6,No
2019/11/03,20:20,0.185,0.163,0.277,0.259,0.262,0.141,0.086,northwest,0.8,No
2019/11/03,20:30,0.185,0.163,0.277,0.260,0.263,0.141,0.087,northwest,1.0,No
2019/11/03,20:40,0.186,0.162,0.276,0.258,0.262,0.140,0.087,north,1.3,No
2019/11/03,20:50,0.185,0.164,0.277,0.261,0.263,0.141,0.087,north-northwest,1.5,No
2019/11/03,21:00,0.184,0.163,0.275,0.259,0.261,0.141,0.086,north,1.8,No
2019/11/03,21:10,0.185,0.163,0.276,0.259,0.262,0.142,0.087,north,2.9,No
2019/11/03,21:20,0.184,0.163,0.276,0.258,0.263,0.142,0.087,north,2.1,No
2019/11/03,21:30,0.185,0.164,0.275,0.258,0.261,0.142,0.086,northwest,2.4,No
2019/11/03,21:40,0.184,0.162,0.275,0.259,0.263,0.141,0.086,northwest,2.6,No
2019/11/03,21:50,0.185,0.163,0.276,0.258,0.262,0.141,0.086,northwest,3.0,No
2019/11/03,22:00,0.186,0.163,0.276,0.260,0.263,0.140,0.086,northwest,2.8,No
2019/11/03,22:10,0.184,0.162,0.278,0.260,0.261,0.140,0.086,north,2.6,No
2019/11/03,22:20,0.186,0.163,0.275,0.259,0.262,0.140,0.086,north,2.9,No
2019/11/03,22:30,0.185,0.163,0.276,0.259,0.262,0.140,0.087,northwest,3.8,No
2019/11/03,22:40,0.187,0.163,0.276,0.259,0.262,0.140,0.086,northwest,3.9,No
2019/11/03,22:50,0.185,0.164,0.276,0.258,0.264,0.140,0.086,north-northwest,3.0,No
2019/11/03,23:00,0.185,0.163,0.275,0.259,0.262,0.141,0.086,north-northwest,3.5,No
2019/11/03,23:10,0.185,0.164,0.276,0.259,0.263,0.140,0.086,north-northwest,4.1,No
2019/11/03,23:20,0.185,0.162,0.276,0.260,0.261,0.140,0.087,north-northwest,3.3,No
2019/11/03,23:30,0.185,0.161,0.274,0.258,0.262,0.141,0.087,north,3.3,No
2019/11/03,23:40,0.185,0.164,0.275,0.259,0.263,0.140,0.086,north-northwest,3.5,No
2019/11/03,23:50,0.186,0.162,0.278,0.260,0.263,0.141,0.086,north-northwest,3.4,No
